ATLAS 3B R/B - Orbit

View from above orbital plane
View from above orbital plane
View from above satellite
View from above satellite

Ground track
Ground track

The orbit data is extracted from the following two-line orbital elements,

1 28538U 05004B   13137.23102875 0.00000050  00000-0  76307-4 0    03
2 28538  63.8210  99.0177 0215000 272.9131  87.0869 13.42986495    03
Epoch (UTC): 17 May 2013 05:32:40
Eccentricity: 0.0215000
inclination: 63.8210°
perigee height: 937 km
apogee height: 1259 km
right ascension of ascending node: 99.0177°
argument of perigee: 272.9131°
revolutions per day: 13.42986495
mean anomaly at epoch: 87.0869°
orbit number at epoch: 0

The dashed part of the orbit path shows where the satellite is in the earth's shadow,  

Developed and maintained by Chris Peat, Heavens-Above GmbH. Please read the updated FAQ before sending e-mail. Imprint. DLR